Location: Wald
(31.7579°N, 86.6655°W)
Time: 12:24:46
(UTC+00:00)

SL-08 R/B - Pass Details

Date: 14 July 2020
Orbit: 674 x 739 km, 98.4° (Epoch: 08 August)

Event Time Altitude Azimuth Distance (km) Brightness Sun altitude
Exits shadow 09:37:10 22° 240° (WSW) 1,505 4.4 -14.3°
Maximum altitude 09:38:24 25° 264° (W) 1,416 4.4 -14.1°
Drops below altitude 10° 09:42:18 10° 318° (NW) 2,187 5.8 -13.4°
Sets 09:44:58 0° 332° (NNW) 3,122 6.8 -13.0°
